[[{"header":{"parameterUnit":"m.s-1","parameterCategory":1,"la1":30.2991,"la2":30.254,"lo1":-89.0895,"lo2":-89.0444,"dy":0.0017,"dx":0.0017,"nx":28,"ny":28,"refTime":"2024-04-26T21:00:00:Z","depth":0,"parameterNumber":2,"parameterNumberName":"U-component_of_WINDS"},"data":[0,0,0,0,0,0,0,0,0,0,0,0,0,0,0,0,0,0,0,0,0,0,0,0,0,0,0,0,0,0,0,0,0,0,0,0,0,0,0,0,0,0,0,0,0,0,0,0,0,0,0,0,0,0,0,0,0,0,-4.5496,-4.5498,0,-4.5613,-4.5615,-4.5616,-4.5632,-4.5631,-4.563,-4.5629,-4.5748,-4.5752,-4.5756,0,0,0,0,0,0,0,0,0,0,0,0,0,-4.5288,-4.5291,-4.5496,-4.5498,-4.5499,-4.5613,-4.5615,-4.5616,-4.5632,-4.5631,-4.563,-4.5628,-4.5746,-4.5751,-4.5756,0,0,0,0,0,0,0,0,0,0,0,0,0,-4.5389,-4.5293,-4.5496,-4.5521,-4.5524,-4.5613,-4.5615,-4.5617,-4.5632,-4.5631,-4.5629,-4.5628,-4.5745,-4.5751,-4.5757,-4.5828,0,0,-4.5776,-4.5779,0,0,0,0,0,0,0,0,-4.5383,-4.5396,-4.5516,-4.5519,-4.5523,-4.5606,-4.5585,-4.5688,-4.5633,-4.5591,-4.5629,-4.5627,-4.5702,-4.5712,-4.5737,-4.5834,-4.5839,-4.5777,-4.578,-4.5783,-4.5785,0,0,0,0,0,0,0,-4.5376,-4.5391,-4.5542,-4.5517,-4.5522,-4.5526,-4.5539,-4.5604,-4.5654,-4.5595,-4.5596,-4.561,-4.5704,-4.5731,-4.574,-4.5841,-4.5777,-4.5782,-4.5786,-4.5788,-4.6003,-4.6005,0,0,0,0,0,0,-4.5364,-4.5385,-4.5539,-4.5546,-4.5448,-4.5532,-4.5546,-4.5581,-4.5654,-4.5663,-4.5611,-4.561,-4.5721,-4.5733,-4.5744,-4.5833,-4.5783,-4.5789,-4.5793,-4.6001,-4.6004,-4.6006,0,0,0,0,0,0,-4.536,-4.5378,-4.5534,-4.5466,-4.5486,-4.5537,-4.5577,-4.5584,-4.5612,-4.5666,-4.5675,-4.563,-4.572,-4.5735,-4.5808,-4.5837,-4.5792,-4.5798,-4.5999,-4.6002,-4.6005,-4.601,0,0,0,0,0,0,-4.5354,-4.5376,-4.5403,-4.5467,-4.549,-4.5595,-4.5579,-4.5588,-4.5623,-4.5623,-4.5686,-4.5695,-4.572,-4.5798,-4.5814,-4.5845,-4.5802,-4.5997,-4.6,-4.6004,-4.6007,-4.6013,-4.6017,0,0,0,0,0,-4.5346,-4.54,-4.5405,-4.5423,-4.5525,-4.5597,-4.561,-4.5638,-4.5625,-4.5653,-4.5688,-4.5693,-4.5832,-4.5805,-4.5823,-4.5857,-4.5995,-4.5999,-4.6004,-4.6005,-4.6012,-4.6017,0,0,0,0,0,0,-4.5338,-4.5408,-4.5415,-4.549,-4.5538,-4.5599,-4.5635,-4.5644,-4.5696,-4.5693,-4.5726,-4.5741,-4.5811,-4.5842,-4.5811,-4.593,-4.5912,-4.592,-4.5907,-4.5914,-4.5919,-4.5909,-4.5808,0,0,0,0,0,-4.5345,-4.5397,-4.5456,-4.5517,-4.5541,-4.5584,-4.5616,-4.5634,-4.5684,-4.5704,-4.5745,-4.5793,-4.5848,-4.5883,-4.5936,-4.6013,-4.6027,-4.6045,-4.605,-4.6053,-4.6059,-4.6103,-4.6111,-4.602,-4.602,-4.602,0,0,-4.536,-4.5405,-4.5436,-4.5517,-4.5555,-4.5609,-4.5601,-4.5657,-4.5697,-4.5713,-4.5783,-4.5815,-4.5871,-4.5946,-4.5981,-4.5973,-4.6088,-4.6059,-4.6062,-4.6066,-4.6108,-4.6117,-4.6124,-4.6023,-4.6023,-4.6022,0,0,-4.5414,-4.5454,-4.5509,-4.5548,-4.5607,-4.5636,-4.565,-4.5711,-4.5733,-4.5804,-4.5817,-4.5866,-4.5959,-4.5999,-4.6031,-4.6103,-4.6109,-4.612,-4.6145,-4.6187,-4.6194,-4.62,-4.6226,-4.6234,-4.6126,-4.6126,-4.6126,0,-4.5425,-4.5506,-4.5536,-4.5593,-4.5628,-4.5646,-4.5703,-4.5739,-4.5813,-4.5837,-4.5828,-4.5946,-4.5985,-4.607,-4.6088,-4.6114,-4.613,-4.6111,-4.619,-4.6197,-4.6204,-4.6228,-4.6238,-4.6127,-4.6127,-4.6127,-4.6127,0,-4.5516,-4.5572,-4.561,-4.5681,-4.5721,-4.5777,-4.5817,-4.5854,-4.5869,-4.5899,-4.5972,-4.602,-4.6084,-4.6106,-4.6121,-4.6193,-4.6187,-4.6184,-4.6166,-4.6213,-4.6236,-4.6246,-4.6128,-4.6128,-4.6127,-4.6127,0,0,-4.5566,-4.5654,-4.5667,-4.57,-4.5768,-4.5812,-4.587,-4.5933,-4.5963,-4.6014,-4.6063,-4.6143,-4.6142,-4.6178,-4.6199,-4.6236,-4.6289,-4.6228,-4.623,-4.6237,-4.6372,-4.6373,-4.6383,-4.6295,-4.6297,-4.6298,-4.6367,0,-4.5627,-4.573,-4.576,-4.5847,-4.5899,-4.5918,-4.5969,-4.6016,-4.6046,-4.6095,-4.6129,-4.6185,-4.6178,-4.6201,-4.6238,-4.6275,-4.6317,-4.627,-4.6341,-4.6343,-4.6324,-4.6395,-4.6396,-4.6458,-4.6376,-4.6378,-4.6379,0,-4.5712,-4.5764,-4.5856,-4.5918,-4.5941,-4.5986,-4.6047,-4.6094,-4.6148,-4.6168,-4.621,-4.6227,-4.6289,-4.6269,-4.6355,-4.6323,-4.6354,-4.6376,-4.638,-4.6386,-4.6362,-4.6402,-4.6479,-4.6487,-4.6394,-4.6393,-4.6392,0,-4.5738,-4.5832,-4.5899,-4.5927,-4.6001,-4.6032,-4.6064,-4.6117,-4.6154,-4.6207,-4.6231,-4.6291,-4.6323,-4.6369,-4.6403,-4.6386,-4.6485,-4.6469,-4.6503,-4.6502,-4.6521,-4.6519,-4.6602,-4.6544,-4.6543,-4.6543,-4.6543,0,-4.5802,-4.5857,-4.5912,-4.5953,-4.6017,-4.6052,-4.6113,-4.6146,-4.6194,-4.6242,-4.6263,-4.6308,-4.635,-4.6401,-4.6427,-4.6494,-4.6509,-4.6526,-4.6532,-4.6524,-4.6521,-4.6543,-4.6539,-4.6546,-4.6545,-4.6545,-4.6544,0,-4.5841,-4.588,-4.5955,-4.6019,-4.6037,-4.608,-4.6136,-4.6177,-4.6209,-4.627,-4.6286,-4.6336,-4.6398,-4.6436,-4.6514,-4.6532,-4.6605,-4.661,-4.6586,-4.6589,-4.6621,-4.6617,-4.672,-4.6735,-4.6667,-4.6667,-4.6668,0,-4.5879,-4.5922,-4.5992,-4.6026,-4.6058,-4.6113,-4.615,-4.6187,-4.6225,-4.6291,-4.6325,-4.6387,-4.6439,-4.6536,-4.658,-4.6639,-4.6646,-4.6678,-4.6655,-4.6645,-4.6645,-4.6642,-4.6646,-4.6681,-4.6681,-4.6682,-4.6682,0,-4.5942,-4.5959,-4.6012,-4.6073,-4.6117,-4.6166,-4.6215,-4.6242,-4.6288,-4.633,-4.6392,-4.6433,-4.6513,-4.6575,-4.6639,-4.6673,-4.6685,-4.669,-4.6701,-4.6691,-4.6675,-4.6684,-4.6595,-4.6686,-4.6686,-4.6686,-4.6685,-4.6685,-4.5981,-4.602,-4.6076,-4.6134,-4.6176,-4.6221,-4.6263,-4.6301,-4.6354,-4.6422,-4.6441,-4.6507,-4.6562,-4.6649,-4.6685,-4.6737,-4.6733,-4.6749,-4.6752,-4.6756,-4.6756,-4.6668,-4.6749,-4.6749,-4.6749,-4.6749,-4.6749,0,-4.6044,-4.6081,-4.6135,-4.6204,-4.625,-4.6259,-4.6314,-4.6352,-4.641,-4.646,-4.6511,-4.6584,-4.6645,-4.6694,-4.6757,-4.6789,-4.6796,-4.6804,-4.6801,-4.6809,-4.6756,-4.674,-4.6797,-4.6797,-4.6797,-4.6797,-4.6797,-4.6797,-4.6083,-4.615,-4.6174,-4.6263,-4.6299,-4.6364,-4.6395,-4.6438,-4.6478,-4.6558,-4.6609,-4.6641,-4.6691,-4.6758,-4.6814,-4.6827,-4.6849,-4.6855,-4.6869,-4.6818,-4.6813,-4.6808,-4.6792,-4.686,-4.686,-4.6918,-4.6918,-4.6918]},{"header":{"parameterUnit":"m.s-1","parameterCategory":1,"la1":30.2991,"la2":30.254,"lo1":-89.0895,"lo2":-89.0444,"dy":0.0017,"dx":0.0017,"nx":28,"ny":28,"refTime":"2024-04-26T21:00:00:Z","depth":0,"parameterNumber":3,"parameterNumberName":"V-component_of_WINDS"},"data":[0,0,0,0,0,0,0,0,0,0,0,0,0,0,0,0,0,0,0,0,0,0,0,0,0,0,0,0,0,0,0,0,0,0,0,0,0,0,0,0,0,0,0,0,0,0,0,0,0,0,0,0,0,0,0,0,0,0,5.2039,5.204,0,5.2055,5.2055,5.2055,5.2051,5.2051,5.2051,5.205,5.2064,5.2065,5.2065,0,0,0,0,0,0,0,0,0,0,0,0,0,5.2005,5.2005,5.2039,5.204,5.204,5.2055,5.2055,5.2055,5.2051,5.2051,5.2051,5.205,5.2064,5.2065,5.2065,0,0,0,0,0,0,0,0,0,0,0,0,0,5.202,5.2006,5.2039,5.204,5.204,5.2055,5.2055,5.2056,5.2051,5.2051,5.205,5.205,5.2064,5.2065,5.2066,5.2081,0,0,5.2069,5.2069,0,0,0,0,0,0,0,0,5.2019,5.2021,5.2039,5.204,5.204,5.2051,5.2048,5.2064,5.2051,5.2047,5.205,5.205,5.206,5.2061,5.2065,5.2081,5.2082,5.2069,5.2069,5.207,5.207,0,0,0,0,0,0,0,5.2018,5.2021,5.2045,5.204,5.204,5.2039,5.204,5.2051,5.2056,5.2047,5.2047,5.2049,5.206,5.2064,5.2065,5.2082,5.2069,5.2069,5.207,5.207,5.2114,5.2114,0,0,0,0,0,0,5.2017,5.202,5.2045,5.2046,5.2028,5.204,5.2041,5.2048,5.2056,5.2056,5.2049,5.2049,5.2063,5.2064,5.2066,5.2085,5.207,5.2071,5.2071,5.2113,5.2114,5.2114,0,0,0,0,0,0,5.2016,5.2019,5.2044,5.2033,5.2036,5.2041,5.2048,5.2048,5.2052,5.2057,5.2058,5.2053,5.2062,5.2064,5.2078,5.2086,5.2071,5.2072,5.2112,5.2113,5.2114,5.2124,0,0,0,0,0,0,5.2015,5.2019,5.2025,5.2033,5.2037,5.2056,5.2048,5.2049,5.2054,5.2054,5.2061,5.2061,5.2062,5.2076,5.2079,5.2087,5.2073,5.2112,5.2113,5.2114,5.2123,5.2125,5.2127,0,0,0,0,0,5.2014,5.2026,5.2025,5.2028,5.2044,5.2057,5.2059,5.206,5.2055,5.2061,5.2064,5.2061,5.2084,5.2078,5.208,5.2089,5.2111,5.2112,5.2114,5.2122,5.2124,5.2126,0,0,0,0,0,0,5.2018,5.2027,5.2026,5.2041,5.2049,5.2056,5.2063,5.2062,5.207,5.2069,5.207,5.2071,5.2085,5.2088,5.208,5.2105,5.2097,5.2099,5.2102,5.2105,5.2107,5.2106,5.2073,0,0,0,0,0,5.2021,5.2031,5.2038,5.2051,5.2054,5.2058,5.2064,5.2065,5.2071,5.2074,5.2078,5.2085,5.2094,5.2099,5.2107,5.2123,5.2125,5.213,5.2132,5.2134,5.2136,5.2145,5.2148,5.2118,5.2118,5.2118,0,0,5.2026,5.2032,5.2038,5.2052,5.2057,5.2067,5.2061,5.2071,5.2079,5.2075,5.2089,5.2092,5.2099,5.2114,5.2121,5.2117,5.2144,5.2136,5.2137,5.2138,5.2147,5.215,5.2152,5.2119,5.2119,5.2119,0,0,5.2041,5.2047,5.2059,5.2065,5.2074,5.2077,5.208,5.2088,5.2091,5.2104,5.2102,5.2111,5.2126,5.2132,5.2136,5.2156,5.2154,5.2159,5.2169,5.2178,5.2181,5.2183,5.2191,5.2193,5.216,5.216,5.216,0,5.2046,5.2062,5.2065,5.2076,5.2083,5.2081,5.2094,5.2099,5.211,5.2114,5.211,5.213,5.2135,5.2152,5.2157,5.216,5.2164,5.2158,5.218,5.2182,5.2184,5.2192,5.2195,5.2161,5.2161,5.2161,5.2161,0,5.2069,5.208,5.2088,5.2101,5.2108,5.212,5.2124,5.2131,5.2131,5.2135,5.2149,5.2155,5.2165,5.2169,5.2169,5.2187,5.2184,5.218,5.2172,5.2188,5.2195,5.2198,5.2162,5.2161,5.2161,5.2161,0,0,5.2085,5.2101,5.2104,5.211,5.2121,5.2129,5.2141,5.2153,5.2159,5.2167,5.2177,5.2191,5.2188,5.2193,5.2194,5.2202,5.2219,5.2197,5.2198,5.2202,5.224,5.2243,5.2246,5.2217,5.2218,5.2218,5.2239,0,5.2102,5.2125,5.2128,5.2148,5.2159,5.2158,5.2169,5.2177,5.2181,5.219,5.2194,5.2204,5.2199,5.2203,5.2211,5.2215,5.2227,5.2214,5.2227,5.2228,5.2226,5.225,5.2253,5.2273,5.2242,5.2243,5.2243,0,5.2124,5.2135,5.2156,5.2167,5.2172,5.2182,5.2193,5.2202,5.2211,5.2213,5.2221,5.2221,5.2233,5.2225,5.2243,5.2234,5.224,5.2243,5.2244,5.2246,5.2236,5.2253,5.2279,5.2282,5.2247,5.2247,5.2246,0,5.2136,5.2155,5.2171,5.2176,5.2189,5.2196,5.2201,5.221,5.2217,5.2227,5.2232,5.2242,5.2248,5.2256,5.2259,5.2253,5.2277,5.2269,5.228,5.228,5.2285,5.2285,5.2313,5.2288,5.2288,5.2288,5.2288,0,5.2154,5.2168,5.2176,5.2186,5.2201,5.2205,5.2219,5.2225,5.2233,5.2243,5.2243,5.2253,5.2256,5.2267,5.2269,5.2284,5.2286,5.2288,5.2289,5.2289,5.2289,5.2293,5.2292,5.2289,5.2288,5.2288,5.2288,0,5.2169,5.2176,5.2193,5.2205,5.2208,5.2219,5.2228,5.2238,5.2242,5.2256,5.2259,5.2266,5.2278,5.2282,5.2296,5.2298,5.2316,5.2315,5.2313,5.2314,5.2324,5.2324,5.2357,5.2362,5.2333,5.2333,5.2333,0,5.2181,5.2192,5.2205,5.2213,5.222,5.2232,5.224,5.2244,5.2252,5.2264,5.2272,5.2285,5.2295,5.2315,5.2321,5.2332,5.2332,5.2343,5.2334,5.2334,5.2333,5.2333,5.2334,5.2345,5.2345,5.2345,5.2345,0,5.2202,5.2205,5.2217,5.223,5.224,5.2251,5.2261,5.2267,5.2273,5.2282,5.2296,5.2304,5.232,5.2332,5.2344,5.235,5.2349,5.2348,5.2352,5.2352,5.2351,5.2353,5.2319,5.2348,5.2347,5.2347,5.2347,5.2347,5.2216,5.2226,5.2238,5.2252,5.226,5.227,5.228,5.2287,5.2298,5.2313,5.2314,5.2329,5.2339,5.2355,5.2361,5.2373,5.2369,5.2374,5.2375,5.2376,5.2378,5.2349,5.2375,5.2375,5.2375,5.2374,5.2374,0,5.2237,5.2245,5.2258,5.2273,5.2284,5.2284,5.2296,5.2305,5.2318,5.2328,5.2339,5.2355,5.2368,5.2375,5.2388,5.2396,5.2396,5.2399,5.2399,5.24,5.2379,5.2376,5.2399,5.2399,5.2399,5.2399,5.2399,5.2399,5.225,5.2267,5.2272,5.2294,5.2302,5.2318,5.2324,5.2334,5.2342,5.236,5.2372,5.2377,5.2386,5.24,5.2412,5.2414,5.2418,5.2422,5.2424,5.2404,5.2402,5.2399,5.2396,5.2423,5.2423,5.2444,5.2444,5.2444]}]]